contact:dominique.lefevre@mio.osupytheas.fr, maurice.libes@osupytheas.fr, didier.mallarino@osupytheas.fr
Project:EMSO http://www.emso-fr.org/EMSO-France
Depth: 2436.0 m
Title:EMSO Ligure Ouest : Data MII capteur MICROCAT
DateTime_Computer,Latitude,Longitude,Temperature,Conductivity,Pressure,DateTime_Instrument
DateTime_Computer,Latitude,Longitude,degC,S m-1,dbar,DateTime_Instrument
2019-12-28T00:00:07Z,42.805,6.029,13.2958,4.59961,2469.947,2019-12-28T02:00:38Z
2019-12-28T00:03:11Z,42.805,6.029,13.2960,4.59961,2470.007,2019-12-28T02:03:42Z
2019-12-28T00:06:14Z,42.805,6.029,13.2961,4.59961,2469.984,2019-12-28T02:06:45Z
2019-12-28T00:09:17Z,42.805,6.029,13.2961,4.59960,2469.947,2019-12-28T02:09:48Z
2019-12-28T00:12:20Z,42.805,6.029,13.2962,4.59960,2469.993,2019-12-28T02:12:51Z
2019-12-28T00:15:23Z,42.805,6.029,13.2960,4.59960,2470.007,2019-12-28T02:15:54Z
2019-12-28T00:18:27Z,42.805,6.029,13.2964,4.59963,2469.984,2019-12-28T02:18:58Z
2019-12-28T00:21:30Z,42.805,6.029,13.2963,4.59962,2469.984,2019-12-28T02:22:01Z
2019-12-28T00:24:33Z,42.805,6.029,13.2964,4.59962,2469.97,2019-12-28T02:25:04Z
2019-12-28T00:27:36Z,42.805,6.029,13.2964,4.59961,2469.947,2019-12-28T02:28:07Z
2019-12-28T00:30:40Z,42.805,6.029,13.2960,4.59961,2469.984,2019-12-28T02:31:11Z
2019-12-28T00:33:43Z,42.805,6.029,13.2959,4.59961,2469.947,2019-12-28T02:34:14Z
2019-12-28T00:36:46Z,42.805,6.029,13.2958,4.59961,2469.937,2019-12-28T02:37:17Z
2019-12-28T00:39:49Z,42.805,6.029,13.2962,4.59961,2469.947,2019-12-28T02:40:20Z
2019-12-28T00:42:52Z,42.805,6.029,13.2965,4.59961,2469.97,2019-12-28T02:43:24Z
2019-12-28T00:45:56Z,42.805,6.029,13.2964,4.59964,2469.993,2019-12-28T02:46:27Z
2019-12-28T00:48:59Z,42.805,6.029,13.2963,4.59961,2469.947,2019-12-28T02:49:30Z
2019-12-28T00:52:02Z,42.805,6.029,13.2959,4.59960,2469.97,2019-12-28T02:52:33Z
2019-12-28T00:55:05Z,42.805,6.029,13.2961,4.59961,2469.97,2019-12-28T02:55:36Z
2019-12-28T00:58:09Z,42.805,6.029,13.2958,4.59962,2469.984,2019-12-28T02:58:40Z
2019-12-28T01:01:12Z,42.805,6.029,13.2963,4.59961,2469.937,2019-12-28T03:01:43Z
2019-12-28T01:04:15Z,42.805,6.029,13.2963,4.59962,2469.96,2019-12-28T03:04:46Z
2019-12-28T01:07:18Z,42.805,6.029,13.2965,4.59961,2469.947,2019-12-28T03:07:49Z
2019-12-28T01:10:22Z,42.805,6.029,13.2964,4.59960,2469.984,2019-12-28T03:10:53Z
2019-12-28T01:13:25Z,42.805,6.029,13.2962,4.59961,2469.947,2019-12-28T03:13:56Z
2019-12-28T01:16:28Z,42.805,6.029,13.2962,4.59961,2469.96,2019-12-28T03:16:59Z
2019-12-28T01:19:31Z,42.805,6.029,13.2961,4.59961,2469.947,2019-12-28T03:20:02Z
2019-12-28T01:22:35Z,42.805,6.029,13.2962,4.59962,2469.937,2019-12-28T03:23:06Z
2019-12-28T01:25:38Z,42.805,6.029,13.2964,4.59961,2469.947,2019-12-28T03:26:09Z
2019-12-28T01:28:41Z,42.805,6.029,13.2964,4.59961,2469.947,2019-12-28T03:29:12Z
2019-12-28T01:31:44Z,42.805,6.029,13.2963,4.59960,2469.947,2019-12-28T03:32:15Z
2019-12-28T01:34:47Z,42.805,6.029,13.2962,4.59961,2469.923,2019-12-28T03:35:19Z
2019-12-28T01:37:51Z,42.805,6.029,13.2961,4.59961,2469.96,2019-12-28T03:38:22Z
2019-12-28T01:40:54Z,42.805,6.029,13.2958,4.59960,2469.96,2019-12-28T03:41:25Z
2019-12-28T01:43:57Z,42.805,6.029,13.2960,4.59961,2469.937,2019-12-28T03:44:28Z
2019-12-28T01:47:00Z,42.805,6.029,13.2964,4.59960,2469.96,2019-12-28T03:47:31Z
2019-12-28T01:50:04Z,42.805,6.029,13.2963,4.59960,2469.923,2019-12-28T03:50:35Z
2019-12-28T01:53:07Z,42.805,6.029,13.2965,4.59960,2469.937,2019-12-28T03:53:38Z
2019-12-28T01:56:10Z,42.805,6.029,13.2966,4.59960,2469.923,2019-12-28T03:56:41Z
2019-12-28T01:59:13Z,42.805,6.029,13.2962,4.59961,2469.947,2019-12-28T03:59:44Z
2019-12-28T02:02:16Z,42.805,6.029,13.2960,4.59961,2469.97,2019-12-28T04:02:47Z
2019-12-28T02:05:20Z,42.805,6.029,13.2964,4.59961,2469.923,2019-12-28T04:05:51Z
2019-12-28T02:08:23Z,42.805,6.029,13.2960,4.59961,2469.947,2019-12-28T04:08:54Z
2019-12-28T02:11:26Z,42.805,6.029,13.2961,4.59962,2469.947,2019-12-28T04:11:57Z
2019-12-28T02:14:29Z,42.805,6.029,13.2961,4.59960,2469.937,2019-12-28T04:15:00Z
2019-12-28T02:17:33Z,42.805,6.029,13.2961,4.59961,2469.984,2019-12-28T04:18:04Z
2019-12-28T02:20:36Z,42.805,6.029,13.2965,4.59961,2469.923,2019-12-28T04:21:07Z
2019-12-28T02:23:39Z,42.805,6.029,13.2964,4.59961,2469.97,2019-12-28T04:24:10Z
2019-12-28T02:26:42Z,42.805,6.029,13.2961,4.59961,2469.909,2019-12-28T04:27:13Z
2019-12-28T02:29:46Z,42.805,6.029,13.2961,4.59961,2469.923,2019-12-28T04:30:17Z
2019-12-28T02:32:49Z,42.805,6.029,13.2957,4.59960,2469.947,2019-12-28T04:33:20Z
2019-12-28T02:35:52Z,42.805,6.029,13.2961,4.59961,2469.923,2019-12-28T04:36:23Z
2019-12-28T02:38:55Z,42.805,6.029,13.2962,4.59961,2469.984,2019-12-28T04:39:26Z
2019-12-28T02:41:59Z,42.805,6.029,13.2967,4.59961,2469.96,2019-12-28T04:42:30Z
2019-12-28T02:45:02Z,42.805,6.029,13.2964,4.59961,2469.923,2019-12-28T04:45:33Z
2019-12-28T02:48:05Z,42.805,6.029,13.2964,4.59961,2469.937,2019-12-28T04:48:36Z
2019-12-28T02:51:08Z,42.805,6.029,13.2964,4.59961,2469.923,2019-12-28T04:51:39Z
2019-12-28T02:54:11Z,42.805,6.029,13.2965,4.59962,2469.937,2019-12-28T04:54:43Z
2019-12-28T02:57:15Z,42.805,6.029,13.2960,4.59962,2469.923,2019-12-28T04:57:46Z
2019-12-28T03:00:18Z,42.805,6.029,13.2959,4.59961,2469.923,2019-12-28T05:00:49Z
2019-12-28T03:03:21Z,42.805,6.029,13.2964,4.59963,2469.937,2019-12-28T05:03:52Z
2019-12-28T03:06:24Z,42.805,6.029,13.2959,4.59961,2469.96,2019-12-28T05:06:55Z
2019-12-28T03:09:27Z,42.805,6.029,13.2960,4.59961,2469.947,2019-12-28T05:09:58Z
2019-12-28T03:12:31Z,42.805,6.029,13.2963,4.59961,2469.937,2019-12-28T05:13:02Z
2019-12-28T03:15:34Z,42.805,6.029,13.2961,4.59961,2469.96,2019-12-28T05:16:05Z
2019-12-28T03:18:37Z,42.805,6.029,13.2965,4.59961,2469.937,2019-12-28T05:19:08Z
2019-12-28T03:21:40Z,42.805,6.029,13.2959,4.59961,2469.923,2019-12-28T05:22:11Z
2019-12-28T03:24:43Z,42.805,6.029,13.2961,4.59961,2469.947,2019-12-28T05:25:15Z
2019-12-28T03:27:47Z,42.805,6.029,13.2964,4.59962,2469.947,2019-12-28T05:28:18Z
2019-12-28T03:30:50Z,42.805,6.029,13.2961,4.59962,2469.947,2019-12-28T05:31:21Z
2019-12-28T03:33:53Z,42.805,6.029,13.2964,4.59961,2469.947,2019-12-28T05:34:24Z
2019-12-28T03:36:56Z,42.805,6.029,13.2969,4.59963,2469.947,2019-12-28T05:37:27Z
2019-12-28T03:40:00Z,42.805,6.029,13.2968,4.59963,2469.96,2019-12-28T05:40:31Z
2019-12-28T03:43:03Z,42.805,6.029,13.2962,4.59961,2469.914,2019-12-28T05:43:34Z
2019-12-28T03:46:06Z,42.805,6.029,13.2965,4.59961,2469.96,2019-12-28T05:46:37Z
2019-12-28T03:49:09Z,42.805,6.029,13.2965,4.59961,2469.96,2019-12-28T05:49:40Z
2019-12-28T03:52:12Z,42.805,6.029,13.2963,4.59961,2469.96,2019-12-28T05:52:43Z
2019-12-28T03:55:16Z,42.805,6.029,13.2968,4.59961,2469.96,2019-12-28T05:55:47Z
2019-12-28T03:58:19Z,42.805,6.029,13.2960,4.59961,2469.96,2019-12-28T05:58:51Z
2019-12-28T04:01:23Z,42.805,6.029,13.2963,4.59961,2469.96,2019-12-28T06:01:54Z
2019-12-28T04:04:26Z,42.805,6.029,13.2961,4.59961,2469.97,2019-12-28T06:04:57Z
2019-12-28T04:07:29Z,42.805,6.029,13.2958,4.59961,2469.96,2019-12-28T06:08:00Z
2019-12-28T04:10:32Z,42.805,6.029,13.2965,4.59961,2469.97,2019-12-28T06:11:03Z
2019-12-28T04:13:36Z,42.805,6.029,13.2967,4.59962,2469.97,2019-12-28T06:14:07Z
2019-12-28T04:16:39Z,42.805,6.029,13.2963,4.59963,2469.947,2019-12-28T06:17:10Z
2019-12-28T04:19:42Z,42.805,6.029,13.2961,4.59964,2469.984,2019-12-28T06:20:13Z
2019-12-28T04:22:45Z,42.805,6.029,13.2960,4.59963,2469.984,2019-12-28T06:23:16Z
2019-12-28T04:25:48Z,42.805,6.029,13.2961,4.59961,2469.984,2019-12-28T06:26:19Z
2019-12-28T04:28:52Z,42.805,6.029,13.2960,4.59961,2469.97,2019-12-28T06:29:23Z
2019-12-28T04:31:55Z,42.805,6.029,13.2964,4.59964,2469.993,2019-12-28T06:32:26Z
2019-12-28T04:34:59Z,42.805,6.029,13.2967,4.59961,2470.007,2019-12-28T06:35:30Z
2019-12-28T04:38:02Z,42.805,6.029,13.2962,4.59962,2470.03,2019-12-28T06:38:33Z
2019-12-28T04:41:05Z,42.805,6.029,13.2964,4.59964,2470.021,2019-12-28T06:41:36Z
2019-12-28T04:44:08Z,42.805,6.029,13.2962,4.59962,2469.993,2019-12-28T06:44:39Z
2019-12-28T04:47:11Z,42.805,6.029,13.2963,4.59963,2470.03,2019-12-28T06:47:42Z
2019-12-28T04:50:15Z,42.805,6.029,13.2961,4.59962,2469.993,2019-12-28T06:50:46Z
2019-12-28T04:53:18Z,42.805,6.029,13.2960,4.59961,2470.007,2019-12-28T06:53:49Z
2019-12-28T04:56:21Z,42.805,6.029,13.2961,4.59962,2469.993,2019-12-28T06:56:52Z
2019-12-28T04:59:24Z,42.805,6.029,13.2964,4.59961,2470.007,2019-12-28T06:59:55Z
2019-12-28T05:02:27Z,42.805,6.029,13.2961,4.59962,2470.007,2019-12-28T07:02:59Z
2019-12-28T05:05:31Z,42.805,6.029,13.2963,4.59962,2470.017,2019-12-28T07:06:02Z
2019-12-28T05:08:34Z,42.805,6.029,13.2964,4.59964,2470.03,2019-12-28T07:09:05Z
2019-12-28T05:11:37Z,42.805,6.029,13.2966,4.59962,2470.03,2019-12-28T07:12:08Z
2019-12-28T05:14:40Z,42.805,6.029,13.2962,4.59961,2470.017,2019-12-28T07:15:11Z
2019-12-28T05:17:43Z,42.805,6.029,13.2964,4.59965,2470.077,2019-12-28T07:18:15Z
2019-12-28T05:20:47Z,42.805,6.029,13.2966,4.59962,2470.04,2019-12-28T07:21:18Z
2019-12-28T05:23:50Z,42.805,6.029,13.2958,4.59965,2470.053,2019-12-28T07:24:21Z
2019-12-28T05:26:53Z,42.805,6.029,13.2963,4.59964,2470.063,2019-12-28T07:27:24Z
2019-12-28T05:29:56Z,42.805,6.029,13.2965,4.59962,2470.017,2019-12-28T07:30:27Z
2019-12-28T05:33:00Z,42.805,6.029,13.2962,4.59963,2470.04,2019-12-28T07:33:31Z
2019-12-28T05:36:03Z,42.805,6.029,13.2965,4.59961,2470.077,2019-12-28T07:36:34Z
2019-12-28T05:39:06Z,42.805,6.029,13.2966,4.59963,2470.077,2019-12-28T07:39:37Z
2019-12-28T05:42:09Z,42.805,6.029,13.2965,4.59963,2470.04,2019-12-28T07:42:40Z
2019-12-28T05:45:12Z,42.805,6.029,13.2961,4.59962,2470.04,2019-12-28T07:45:43Z
2019-12-28T05:48:16Z,42.805,6.029,13.2962,4.59962,2470.087,2019-12-28T07:48:47Z
2019-12-28T05:51:19Z,42.805,6.029,13.2963,4.59962,2470.063,2019-12-28T07:51:50Z
2019-12-28T05:54:22Z,42.805,6.029,13.2964,4.59963,2470.087,2019-12-28T07:54:53Z
2019-12-28T05:57:25Z,42.805,6.029,13.2964,4.59962,2470.087,2019-12-28T07:57:56Z
2019-12-28T06:00:28Z,42.805,6.029,13.2963,4.59962,2470.1,2019-12-28T08:00:59Z
2019-12-28T06:03:32Z,42.805,6.029,13.2964,4.59963,2470.124,2019-12-28T08:04:03Z
2019-12-28T06:06:35Z,42.805,6.029,13.2966,4.59964,2470.087,2019-12-28T08:07:06Z
2019-12-28T06:09:38Z,42.805,6.029,13.2964,4.59964,2470.11,2019-12-28T08:10:09Z
2019-12-28T06:12:41Z,42.805,6.029,13.2965,4.59964,2470.133,2019-12-28T08:13:13Z
2019-12-28T06:15:45Z,42.805,6.029,13.2965,4.59962,2470.077,2019-12-28T08:16:16Z
2019-12-28T06:18:48Z,42.805,6.029,13.2964,4.59962,2470.11,2019-12-28T08:19:19Z
2019-12-28T06:21:51Z,42.805,6.029,13.2966,4.59962,2470.1,2019-12-28T08:22:22Z
2019-12-28T06:24:54Z,42.805,6.029,13.2961,4.59963,2470.133,2019-12-28T08:25:25Z
2019-12-28T06:27:57Z,42.805,6.029,13.2966,4.59963,2470.18,2019-12-28T08:28:29Z
2019-12-28T06:31:01Z,42.805,6.029,13.2959,4.59964,2470.133,2019-12-28T08:31:32Z
2019-12-28T06:34:04Z,42.805,6.029,13.2961,4.59962,2470.147,2019-12-28T08:34:35Z
2019-12-28T06:37:07Z,42.805,6.029,13.2966,4.59961,2470.133,2019-12-28T08:37:38Z
2019-12-28T06:40:10Z,42.805,6.029,13.2963,4.59965,2470.156,2019-12-28T08:40:41Z
2019-12-28T06:43:14Z,42.805,6.029,13.2968,4.59963,2470.147,2019-12-28T08:43:45Z
2019-12-28T06:46:17Z,42.805,6.029,13.2962,4.59963,2470.147,2019-12-28T08:46:48Z
2019-12-28T06:49:20Z,42.805,6.029,13.2964,4.59962,2470.133,2019-12-28T08:49:51Z
2019-12-28T06:52:23Z,42.805,6.029,13.2965,4.59964,2470.133,2019-12-28T08:52:54Z
2019-12-28T06:55:26Z,42.805,6.029,13.2964,4.59963,2470.133,2019-12-28T08:55:58Z
2019-12-28T06:58:30Z,42.805,6.029,13.2962,4.59963,2470.171,2019-12-28T08:59:01Z
2019-12-28T07:01:33Z,42.805,6.029,13.2967,4.59966,2470.156,2019-12-28T09:02:04Z
2019-12-28T07:04:36Z,42.805,6.029,13.2964,4.59961,2470.18,2019-12-28T09:05:07Z
2019-12-28T07:07:40Z,42.805,6.029,13.2965,4.59961,2470.156,2019-12-28T09:08:11Z
2019-12-28T07:10:43Z,42.805,6.029,13.2960,4.59964,2470.171,2019-12-28T09:11:14Z
2019-12-28T07:13:46Z,42.805,6.029,13.2965,4.59964,2470.194,2019-12-28T09:14:17Z
2019-12-28T07:16:49Z,42.805,6.029,13.2964,4.59962,2470.18,2019-12-28T09:17:20Z
2019-12-28T07:19:53Z,42.805,6.029,13.2966,4.59964,2470.18,2019-12-28T09:20:24Z
2019-12-28T07:22:56Z,42.805,6.029,13.2964,4.59962,2470.171,2019-12-28T09:23:27Z
2019-12-28T07:25:59Z,42.805,6.029,13.2961,4.59963,2470.203,2019-12-28T09:26:30Z
2019-12-28T07:29:02Z,42.805,6.029,13.2967,4.59963,2470.18,2019-12-28T09:29:33Z
2019-12-28T07:32:05Z,42.805,6.029,13.2961,4.59963,2470.217,2019-12-28T09:32:37Z
2019-12-28T07:35:09Z,42.805,6.029,13.2964,4.59962,2470.18,2019-12-28T09:35:40Z
2019-12-28T07:38:12Z,42.805,6.029,13.2961,4.59963,2470.18,2019-12-28T09:38:43Z
2019-12-28T07:41:15Z,42.805,6.029,13.2968,4.59961,2470.203,2019-12-28T09:41:46Z
2019-12-28T07:44:18Z,42.805,6.029,13.2965,4.59962,2470.203,2019-12-28T09:44:49Z
2019-12-28T07:47:21Z,42.805,6.029,13.2967,4.59964,2470.18,2019-12-28T09:47:52Z
2019-12-28T07:50:25Z,42.805,6.029,13.2964,4.59963,2470.24,2019-12-28T09:50:56Z
2019-12-28T07:53:28Z,42.805,6.029,13.2965,4.59963,2470.217,2019-12-28T09:53:59Z
2019-12-28T07:56:31Z,42.805,6.029,13.2965,4.59963,2470.217,2019-12-28T09:57:02Z
2019-12-28T07:59:34Z,42.805,6.029,13.2965,4.59961,2470.203,2019-12-28T10:00:05Z
2019-12-28T08:02:38Z,42.805,6.029,13.2963,4.59965,2470.24,2019-12-28T10:03:09Z
2019-12-28T08:05:41Z,42.805,6.029,13.2963,4.59962,2470.217,2019-12-28T10:06:12Z
2019-12-28T08:08:44Z,42.805,6.029,13.2964,4.59964,2470.203,2019-12-28T10:09:15Z
2019-12-28T08:11:47Z,42.805,6.029,13.2961,4.59964,2470.203,2019-12-28T10:12:18Z
2019-12-28T08:14:50Z,42.805,6.029,13.2964,4.59963,2470.194,2019-12-28T10:15:21Z
2019-12-28T08:17:54Z,42.805,6.029,13.2961,4.59961,2470.18,2019-12-28T10:18:25Z
2019-12-28T08:20:57Z,42.805,6.029,13.2963,4.59961,2470.203,2019-12-28T10:21:28Z
2019-12-28T08:24:00Z,42.805,6.029,13.2964,4.59962,2470.203,2019-12-28T10:24:31Z
2019-12-28T08:27:03Z,42.805,6.029,13.2961,4.59963,2470.203,2019-12-28T10:27:34Z
2019-12-28T08:30:06Z,42.805,6.029,13.2960,4.59963,2470.227,2019-12-28T10:30:37Z
2019-12-28T08:33:10Z,42.805,6.029,13.2961,4.59964,2470.194,2019-12-28T10:33:41Z
2019-12-28T08:36:13Z,42.805,6.029,13.2964,4.59962,2470.227,2019-12-28T10:36:44Z
2019-12-28T08:39:16Z,42.805,6.029,13.2966,4.59963,2470.24,2019-12-28T10:39:47Z
2019-12-28T08:42:19Z,42.805,6.029,13.2965,4.59963,2470.227,2019-12-28T10:42:50Z
2019-12-28T08:45:23Z,42.805,6.029,13.2967,4.59962,2470.25,2019-12-28T10:45:54Z
2019-12-28T08:48:26Z,42.805,6.029,13.2961,4.59963,2470.217,2019-12-28T10:48:57Z
2019-12-28T08:51:29Z,42.805,6.029,13.2964,4.59964,2470.217,2019-12-28T10:52:00Z
2019-12-28T08:54:32Z,42.805,6.029,13.2962,4.59962,2470.203,2019-12-28T10:55:03Z
2019-12-28T08:57:35Z,42.805,6.029,13.2965,4.59963,2470.227,2019-12-28T10:58:07Z
2019-12-28T09:00:39Z,42.805,6.029,13.2964,4.59962,2470.213,2019-12-28T11:01:10Z
2019-12-28T09:03:42Z,42.805,6.029,13.2961,4.59963,2470.24,2019-12-28T11:04:13Z
2019-12-28T09:06:45Z,42.805,6.029,13.2963,4.59963,2470.25,2019-12-28T11:07:16Z
2019-12-28T09:09:48Z,42.805,6.029,13.2964,4.59962,2470.227,2019-12-28T11:10:19Z
2019-12-28T09:12:52Z,42.805,6.029,13.2962,4.59962,2470.264,2019-12-28T11:13:23Z
2019-12-28T09:15:55Z,42.805,6.029,13.2962,4.59964,2470.227,2019-12-28T11:16:26Z
2019-12-28T09:18:58Z,42.805,6.029,13.2964,4.59962,2470.227,2019-12-28T11:19:29Z
2019-12-28T09:22:01Z,42.805,6.029,13.2965,4.59962,2470.25,2019-12-28T11:22:32Z
2019-12-28T09:25:04Z,42.805,6.029,13.2961,4.59963,2470.264,2019-12-28T11:25:35Z
2019-12-28T09:28:08Z,42.805,6.029,13.2964,4.59962,2470.227,2019-12-28T11:28:39Z
2019-12-28T09:31:11Z,42.805,6.029,13.2962,4.59962,2470.24,2019-12-28T11:31:42Z
2019-12-28T09:34:14Z,42.805,6.029,13.2965,4.59962,2470.203,2019-12-28T11:34:45Z
2019-12-28T09:37:17Z,42.805,6.029,13.2967,4.59962,2470.227,2019-12-28T11:37:48Z
2019-12-28T09:40:20Z,42.805,6.029,13.2964,4.59964,2470.203,2019-12-28T11:40:52Z
2019-12-28T09:43:24Z,42.805,6.029,13.2964,4.59962,2470.227,2019-12-28T11:43:55Z
2019-12-28T09:46:27Z,42.805,6.029,13.2967,4.59962,2470.24,2019-12-28T11:46:58Z
2019-12-28T09:49:30Z,42.805,6.029,13.2961,4.59962,2470.25,2019-12-28T11:50:01Z
2019-12-28T09:52:34Z,42.805,6.029,13.2961,4.59961,2470.203,2019-12-28T11:53:05Z
2019-12-28T09:55:37Z,42.805,6.029,13.2961,4.59964,2470.203,2019-12-28T11:56:08Z
2019-12-28T09:58:40Z,42.805,6.029,13.2961,4.59963,2470.25,2019-12-28T11:59:11Z
2019-12-28T10:01:43Z,42.805,6.029,13.2964,4.59962,2470.203,2019-12-28T12:02:14Z
2019-12-28T10:04:46Z,42.805,6.029,13.2958,4.59962,2470.227,2019-12-28T12:05:17Z
2019-12-28T10:07:50Z,42.805,6.029,13.2966,4.59966,2470.203,2019-12-28T12:08:21Z
2019-12-28T10:10:53Z,42.805,6.029,13.2964,4.59962,2470.217,2019-12-28T12:11:24Z
2019-12-28T10:13:56Z,42.805,6.029,13.2961,4.59963,2470.264,2019-12-28T12:14:27Z
2019-12-28T10:16:59Z,42.805,6.029,13.2964,4.59962,2470.24,2019-12-28T12:17:30Z
2019-12-28T10:20:03Z,42.805,6.029,13.2967,4.59963,2470.24,2019-12-28T12:20:34Z
2019-12-28T10:23:06Z,42.805,6.029,13.2964,4.59962,2470.217,2019-12-28T12:23:37Z
2019-12-28T10:26:09Z,42.805,6.029,13.2967,4.59962,2470.227,2019-12-28T12:26:40Z
2019-12-28T10:29:12Z,42.805,6.029,13.2963,4.59963,2470.203,2019-12-28T12:29:43Z
2019-12-28T10:32:15Z,42.805,6.029,13.2961,4.59961,2470.264,2019-12-28T12:32:46Z
2019-12-28T10:35:19Z,42.805,6.029,13.2966,4.59962,2470.203,2019-12-28T12:35:50Z
2019-12-28T10:38:22Z,42.805,6.029,13.2958,4.59963,2470.203,2019-12-28T12:38:53Z
2019-12-28T10:41:25Z,42.805,6.029,13.2967,4.59961,2470.194,2019-12-28T12:41:56Z
2019-12-28T10:44:28Z,42.805,6.029,13.2961,4.59961,2470.217,2019-12-28T12:44:59Z
2019-12-28T10:47:31Z,42.805,6.029,13.2963,4.59964,2470.217,2019-12-28T12:48:03Z
2019-12-28T10:50:35Z,42.805,6.029,13.2964,4.59963,2470.227,2019-12-28T12:51:06Z
2019-12-28T10:53:38Z,42.805,6.029,13.2964,4.59962,2470.203,2019-12-28T12:54:09Z
2019-12-28T10:56:41Z,42.805,6.029,13.2967,4.59962,2470.203,2019-12-28T12:57:12Z
2019-12-28T10:59:44Z,42.805,6.029,13.2963,4.59961,2470.194,2019-12-28T13:00:15Z
2019-12-28T11:02:47Z,42.805,6.029,13.2964,4.59961,2470.18,2019-12-28T13:03:19Z
2019-12-28T11:05:51Z,42.805,6.029,13.2962,4.59961,2470.203,2019-12-28T13:06:22Z
2019-12-28T11:08:54Z,42.805,6.029,13.2963,4.59961,2470.217,2019-12-28T13:09:25Z
2019-12-28T11:11:57Z,42.805,6.029,13.2968,4.59961,2470.18,2019-12-28T13:12:28Z
2019-12-28T11:15:00Z,42.805,6.029,13.2964,4.59961,2470.171,2019-12-28T13:15:31Z
2019-12-28T11:18:04Z,42.805,6.029,13.2963,4.59962,2470.217,2019-12-28T13:18:35Z
2019-12-28T11:21:07Z,42.805,6.029,13.2962,4.59961,2470.171,2019-12-28T13:21:38Z
2019-12-28T11:24:10Z,42.805,6.029,13.2964,4.59961,2470.18,2019-12-28T13:24:41Z
2019-12-28T11:27:13Z,42.805,6.029,13.2965,4.59961,2470.133,2019-12-28T13:27:44Z
2019-12-28T11:30:16Z,42.805,6.029,13.2963,4.59961,2470.156,2019-12-28T13:30:48Z
2019-12-28T11:33:20Z,42.805,6.029,13.2961,4.59961,2470.156,2019-12-28T13:33:51Z
2019-12-28T11:36:23Z,42.805,6.029,13.2964,4.59961,2470.156,2019-12-28T13:36:54Z
2019-12-28T11:39:26Z,42.805,6.029,13.2962,4.59961,2470.18,2019-12-28T13:39:57Z
2019-12-28T11:42:29Z,42.805,6.029,13.2961,4.59961,2470.156,2019-12-28T13:43:00Z
2019-12-28T11:45:32Z,42.805,6.029,13.2965,4.59961,2470.171,2019-12-28T13:46:04Z
2019-12-28T11:48:36Z,42.805,6.029,13.2960,4.59961,2470.133,2019-12-28T13:49:07Z
2019-12-28T11:51:39Z,42.805,6.029,13.2964,4.59961,2470.171,2019-12-28T13:52:10Z
2019-12-28T11:54:42Z,42.805,6.029,13.2961,4.59961,2470.133,2019-12-28T13:55:13Z
2019-12-28T11:57:45Z,42.805,6.029,13.2961,4.59961,2470.133,2019-12-28T13:58:16Z
2019-12-28T12:00:49Z,42.805,6.029,13.2964,4.59961,2470.156,2019-12-28T14:01:20Z
2019-12-28T12:03:52Z,42.805,6.029,13.2963,4.59961,2470.156,2019-12-28T14:04:23Z
2019-12-28T12:06:55Z,42.805,6.029,13.2961,4.59961,2470.171,2019-12-28T14:07:26Z
2019-12-28T12:09:58Z,42.805,6.029,13.2961,4.59961,2470.133,2019-12-28T14:10:29Z
2019-12-28T12:13:01Z,42.805,6.029,13.2961,4.59961,2470.133,2019-12-28T14:13:33Z
2019-12-28T12:16:05Z,42.805,6.029,13.2963,4.59961,2470.156,2019-12-28T14:16:36Z
2019-12-28T12:19:08Z,42.805,6.029,13.2961,4.59961,2470.124,2019-12-28T14:19:39Z
2019-12-28T12:22:11Z,42.805,6.029,13.2961,4.59961,2470.124,2019-12-28T14:22:42Z
2019-12-28T12:25:14Z,42.805,6.029,13.2964,4.59961,2470.11,2019-12-28T14:25:46Z
2019-12-28T12:28:18Z,42.805,6.029,13.2965,4.59961,2470.133,2019-12-28T14:28:49Z
2019-12-28T12:31:21Z,42.805,6.029,13.2964,4.59962,2470.124,2019-12-28T14:31:52Z
2019-12-28T12:34:24Z,42.805,6.029,13.2963,4.59961,2470.147,2019-12-28T14:34:55Z
2019-12-28T12:37:28Z,42.805,6.029,13.2964,4.59962,2470.11,2019-12-28T14:37:59Z
2019-12-28T12:40:31Z,42.805,6.029,13.2962,4.59961,2470.11,2019-12-28T14:41:02Z
2019-12-28T12:43:34Z,42.805,6.029,13.2962,4.59961,2470.11,2019-12-28T14:44:05Z
2019-12-28T12:46:37Z,42.805,6.029,13.2964,4.59961,2470.11,2019-12-28T14:47:08Z
2019-12-28T12:49:40Z,42.805,6.029,13.2965,4.59961,2470.124,2019-12-28T14:50:12Z
2019-12-28T12:52:44Z,42.805,6.029,13.2961,4.59961,2470.124,2019-12-28T14:53:15Z
2019-12-28T12:55:47Z,42.805,6.029,13.2964,4.59961,2470.11,2019-12-28T14:56:18Z
2019-12-28T12:58:50Z,42.805,6.029,13.2965,4.59961,2470.11,2019-12-28T14:59:21Z
2019-12-28T13:01:53Z,42.805,6.029,13.2967,4.59961,2470.087,2019-12-28T15:02:24Z
2019-12-28T13:04:56Z,42.805,6.029,13.2965,4.59961,2470.087,2019-12-28T15:05:28Z
2019-12-28T13:08:00Z,42.805,6.029,13.2959,4.59961,2470.1,2019-12-28T15:08:31Z
2019-12-28T13:11:03Z,42.805,6.029,13.2959,4.59961,2470.124,2019-12-28T15:11:34Z
2019-12-28T13:14:06Z,42.805,6.029,13.2966,4.59961,2470.124,2019-12-28T15:14:37Z
2019-12-28T13:17:09Z,42.805,6.029,13.2964,4.59961,2470.124,2019-12-28T15:17:40Z
2019-12-28T13:20:13Z,42.805,6.029,13.2960,4.59961,2470.124,2019-12-28T15:20:44Z
2019-12-28T13:23:16Z,42.805,6.029,13.2964,4.59962,2470.124,2019-12-28T15:23:47Z
2019-12-28T13:26:19Z,42.805,6.029,13.2964,4.59961,2470.1,2019-12-28T15:26:50Z
2019-12-28T13:29:23Z,42.805,6.029,13.2964,4.59961,2470.1,2019-12-28T15:29:54Z
2019-12-28T13:32:26Z,42.805,6.029,13.2961,4.59961,2470.124,2019-12-28T15:32:57Z
2019-12-28T13:35:29Z,42.805,6.029,13.2964,4.59961,2470.1,2019-12-28T15:36:00Z
2019-12-28T13:38:32Z,42.805,6.029,13.2962,4.59963,2470.087,2019-12-28T15:39:03Z
2019-12-28T13:41:35Z,42.805,6.029,13.2961,4.59961,2470.087,2019-12-28T15:42:06Z
2019-12-28T13:44:39Z,42.805,6.029,13.2961,4.59961,2470.1,2019-12-28T15:45:10Z
2019-12-28T13:47:42Z,42.805,6.029,13.2961,4.59961,2470.1,2019-12-28T15:48:13Z
2019-12-28T13:50:45Z,42.805,6.029,13.2964,4.59961,2470.1,2019-12-28T15:51:16Z
2019-12-28T13:53:48Z,42.805,6.029,13.2965,4.59963,2470.063,2019-12-28T15:54:19Z
2019-12-28T13:56:52Z,42.805,6.029,13.2963,4.59961,2470.1,2019-12-28T15:57:23Z
2019-12-28T13:59:55Z,42.805,6.029,13.2961,4.59961,2470.063,2019-12-28T16:00:26Z
2019-12-28T14:02:58Z,42.805,6.029,13.2961,4.59962,2470.087,2019-12-28T16:03:29Z
2019-12-28T14:06:01Z,42.805,6.029,13.2964,4.59962,2470.063,2019-12-28T16:06:32Z
2019-12-28T14:09:04Z,42.805,6.029,13.2962,4.59961,2470.04,2019-12-28T16:09:36Z
2019-12-28T14:12:08Z,42.805,6.029,13.2963,4.59961,2470.063,2019-12-28T16:12:39Z
2019-12-28T14:15:11Z,42.805,6.029,13.2962,4.59962,2470.017,2019-12-28T16:15:42Z
2019-12-28T14:18:14Z,42.805,6.029,13.2966,4.59963,2470.077,2019-12-28T16:18:46Z
2019-12-28T14:21:18Z,42.805,6.029,13.2965,4.59964,2470.053,2019-12-28T16:21:49Z
2019-12-28T14:24:21Z,42.805,6.029,13.2964,4.59962,2470.063,2019-12-28T16:24:52Z
2019-12-28T14:27:24Z,42.805,6.029,13.2966,4.59962,2470.063,2019-12-28T16:27:55Z
2019-12-28T14:30:27Z,42.805,6.029,13.2962,4.59965,2470.04,2019-12-28T16:30:59Z
2019-12-28T14:33:31Z,42.805,6.029,13.2964,4.59964,2470.087,2019-12-28T16:34:02Z
2019-12-28T14:36:34Z,42.805,6.029,13.2965,4.59963,2470.077,2019-12-28T16:37:05Z
2019-12-28T14:39:37Z,42.805,6.029,13.2965,4.59964,2470.04,2019-12-28T16:40:09Z
2019-12-28T14:42:41Z,42.805,6.029,13.2965,4.59965,2470.053,2019-12-28T16:43:12Z
2019-12-28T14:45:44Z,42.805,6.029,13.2964,4.59963,2470.04,2019-12-28T16:46:15Z
2019-12-28T14:48:47Z,42.805,6.029,13.2967,4.59963,2470.049,2019-12-28T16:49:18Z
2019-12-28T14:51:50Z,42.805,6.029,13.2965,4.59962,2470.063,2019-12-28T16:52:22Z
2019-12-28T14:54:54Z,42.805,6.029,13.2966,4.59963,2470.03,2019-12-28T16:55:25Z
2019-12-28T14:57:57Z,42.805,6.029,13.2967,4.59963,2470.04,2019-12-28T16:58:28Z
2019-12-28T15:01:00Z,42.805,6.029,13.2964,4.59962,2470.077,2019-12-28T17:01:31Z